Regional Weather Roundup
Issued by NWS Tiyan, Guam

Home | Current Version | Previous Version | Text Only | Print | Product List | Glossary On
Versions: 1 2 3 4 5 6 7 8 9 10 11 12 13 14 15 16 17 18 19 20 21 22 23 24 25 26 27 28 29 30 31 32 33 34 35 36 37 38 39 40 41 42 43 44 45 46 47 48 49 50
000
ASGM40 PGUM 060010
RWRGUM
WEATHER ROUNDUP FOR THE MARIANAS
NATIONAL WEATHER SERVICE TIYAN GU
1000 AM CHST FRI MAR 06 2015

GUZ001>004-060100-
MARIANA ISLANDS-

CITY           SKY/WX    TMP DP  RH WIND       PRES   REMARKS
GUAM AIRPORT   MOSUNNY   84  66  54 E13       29.95S
ANDERSEN AFB   MOSUNNY   81  68  65 NE17      29.95S
ROTA AIRPORT   NOT AVBL
TINIAN AP      MOSUNNY   82  72  69 E17       29.96
SAIPAN AP      MOSUNNY   84  70  61 E20       29.96S

$$



USA.gov is the U.S. government's official web portal to all federal, state and local government web resources and services.